Regional Weather Roundup
Issued by NWS

Home | Current Version | Previous Version | Text Only | Print | Product List | Glossary On
Versions: 1 2 3 4 5 6 7 8 9 10 11 12 13 14 15 16 17 18 19 20 21 22 23 24 25 26 27
000
ASUS42 KTBW 252017
RWRFL
FLORIDA REGIONAL WEATHER ROUNDUP
NATIONAL WEATHER SERVICE TAMPA BAY RUSKIN FL
400 PM EDT THU MAY 25 2017

NOTE: "FAIR" INDICATES FEW OR NO CLOUDS BELOW 12,000 FEET WITH NO
SIGNIFICANT WEATHER AND/OR OBSTRUCTIONS TO VISIBILITY.

FLZ001>010-012>015-112-114-115-252100-
PANHANDLE FLORIDA

CITY           SKY/WX    TMP DP  RH WIND       PRES   REMARKS
PENSACOLA      SUNNY     82  48  30 W10       29.86S
PENSACOLA NAS  MOSUNNY   80  46  30 VRB7      29.86F
MILTON NAS     MOSUNNY   79  50  36 W9G17     29.86
CRESTVIEW      SUNNY     80  47  31 NW9       29.87S
DUKE FIELD     MOSUNNY   79  46  31 W7        29.85S
VALPARAISO     MOSUNNY   81  45  27 NW9G17    29.85F
MARY ESTHER    SUNNY     79  47  32 NW10      29.84S
PANAMA CITY    FAIR      80  50  34 W7        29.84F
TYNDALL AFB    SUNNY     77  53  43 W13       29.86F
APALACHICOLA   SUNNY     78  52  40 NW13      29.87F

STATION/POSITION SKY/WX   TEMP    WIND        PRES    WAVE   SWELL
                          AIR SEA DIR/SP/G            HT/PER HT/PER
                          (F)     (DEG/KT/KT) (MB)    (FT/S) (FT/S)
30.1N   87.6W              72 77  280/ 12/ 16 1011.7F   3/ 7   2/ 7
29.2N   88.2W              74 78  290/ 10/ 12 1012.8
28.8N   86.0W              74 77  290/ 12/ 14 1012.1F   5/ 6   5/ 6
PANAMA CITY BEAC           72 79  250/ 15/ 17 1011.6F
TOWER C                    72     300/ 17/ 18 1012.3F
28.5N   84.5W              74 77  290/ 10/ 14 1012.3F   5/ 7   5/ 7

$$
FLZ011-016>038-118-127-128-134-139-239-252100-
NORTH FLORIDA

CITY           SKY/WX    TMP DP  RH WIND       PRES   REMARKS
MARIANNA       SUNNY     80  50  34 W15       29.84F
TALLAHASSEE    MOSUNNY   81  48  31 NW13      29.84F
PERRY          SUNNY     80  52  37 W10       29.85F
CROSS CITY     SUNNY     79  54  41 W13G28    29.87S
LAKE CITY      FAIR      81  50  34 NW12G20   29.84S
GAINESVILLE    SUNNY     81  51  35 SW18G25   29.84F
MAYPORT NAS    MOSUNNY   82  50  32 W10G21    29.80F
JACKSONVILLE   MOSUNNY   82  49  31 W17G25    29.80F
JAX NAS        MOSUNNY   83  48  29 W17G23    29.83R
FERNANDINA BEA FAIR      84  46  26 W17G26    29.79S
ST AUGUSTINE   SUNNY     82  51  34 W20       29.83S
PALM COAST     MOSUNNY   82  54  36 W16G24    29.83F

STATION/POSITION SKY/WX   TEMP    WIND        PRES    WAVE   SWELL
                          AIR SEA DIR/SP/G            HT/PER HT/PER
                          (F)     (DEG/KT/KT) (MB)    (FT/S) (FT/S)
SHELL POINT      NOT AVBL
KEATON BEACH               75     270/ 11/ 13 1010.9F
CEDAR KEY                  74     290/  9/ 12 1012.3F
FERNANDINA                 80 78  260/ 12/ 17 1009.9F
30.7N   81.3W                 78                N/A     3/ 3
MAYPORT                    78 79  270/ 15/ 23 1009.7F
31.4N   80.9W              75 77  260/ 17/ 23 1008.3F   4/ 5
ST AUGUSTINE               79 78  270/  9/ 12 1010.7F

$$
FLZ040-043>046-052-053-057-058-063-144-252100-
INTERIOR CENTRAL FLORIDA

CITY           SKY/WX    TMP DP  RH WIND       PRES   REMARKS
OCALA          MOSUNNY   82  56  40 SW14G22   29.87
THE VILLAGES     N/A     82  55  39 S16G24    29.76S
LEESBURG       SUNNY     83  58  42 W14G24    29.86F
SANFORD        SUNNY     86  56  35 W14G30    29.82F
ORLANDO EXEC   SUNNY     87  55  33 W18G26    29.83F
ORLANDO INTL   MOSUNNY   84  60  44 SW18G24   29.84F
KISSIMMEE      MOSUNNY   85  63  47 W12       29.86F
WINTER HAVEN   CLOUDY    84  58  40 NW12      29.87S
LAKELAND       PTSUNNY   84  63  48 W9G16     29.87F
BARTOW         PTSUNNY   84  57  39 NW13      29.86F
OKEECHOBEE     CLOUDY    81  68  65 W7        29.89R

$$
FLZ041-047-054-059-064-141-147-252100-
EAST CENTRAL FLORIDA

CITY           SKY/WX    TMP DP  RH WIND       PRES   REMARKS
ORMOND BEACH   MOSUNNY   84  57  39 W14G23    29.82F
DAYTONA BEACH  MOSUNNY   85  56  37 W15G26    29.82F
DELAND         MOSUNNY   84  57  39 W10G20    29.83S
NEW SMYRNA BEA SUNNY     86  55  35 W16G28    29.83F
JFK SPACE CTR  MOSUNNY   87  62  43 W13       29.83S
TITUSVILLE     MOSUNNY   90  59  35 W12       29.84F
CAPE CANAVERAL PTSUNNY   83  63  49 E9        29.83S
PATRICK AFB    PTSUNNY   87  62  43 SW9       29.83F
MELBOURNE      PTSUNNY   87  62  43 SW16      29.84F
FT PIERCE      CLOUDY    83  71  67 W6        29.87F

STATION/POSITION SKY/WX   TEMP    WIND        PRES    WAVE   SWELL
                          AIR SEA DIR/SP/G            HT/PER HT/PER
                          (F)     (DEG/KT/KT) (MB)    (FT/S) (FT/S)
28.5N   80.2W              76 77   30/  8/ 10 1012.1
28.9N   78.5W              78 78  290/ 12/ 16 1011.0F   7/ 7   5/ 7
TRIDENT PIER               84 80   80/  3/  8 1012.0R
28.4N   80.5W                 75                N/A     1/11
27.5N   80.2W                 70                N/A     1/11

$$
FLZ050-056-061-142-242-148-248-149-249-151-251-155-255-
160-260-252100-
WEST CENTRAL FLORIDA

CITY           SKY/WX    TMP DP  RH WIND       PRES   REMARKS
BROOKSVILLE    SUNNY     81  60  48 NW15G21   29.89F
ST PETE CLEARW MOSUNNY   82  60  47 NW12      29.88F
TAMPA INTL     MOSUNNY   83  61  47 W12       29.88F
MACDILL AFB    SUNNY     83  63  51 NW9       29.88S
ST PETERSBURG  PTSUNNY   82  62  50 N9G17     29.86F
SARASOTA       PTSUNNY   83  60  45 W14       29.87F
VENICE         NOT AVBL

STATION/POSITION SKY/WX   TEMP    WIND        PRES    WAVE   SWELL
                          AIR SEA DIR/SP/G            HT/PER HT/PER
                          (F)     (DEG/KT/KT) (MB)    (FT/S) (FT/S)
27.3N   84.2W                 77                N/A     5/ 7
CLEARWATER BEACH           76 81  320/ 11/ 13 1012.4F
MIDDLE TAMPA BAY           77     300/ 11/ 13 1012.3F
VENICE                     78 82  310/ 16/ 18 1011.6F

$$
FLZ066-069-070-075>078-162-262-165-265-252100-
SOUTHWEST FLORIDA AND KEYS

CITY           SKY/WX    TMP DP  RH WIND       PRES   REMARKS
PUNTA GORDA    CLOUDY    83  63  50 W13       29.89F
FT MYERS       MOSUNNY   84  69  60 NW9       29.88S
SOUTHWEST INTL PTSUNNY   82  68  62 W8        29.89R
NAPLES         CLOUDY    83  71  67 NW8       29.89S
MARCO ISLAND   PTSUNNY   82  72  69 W8        29.89F
IMMOKALEE      PTSUNNY   84  73  70 W9G16     29.89S
MARATHON       PTSUNNY   89  78  70 W8        29.91R HX 103
KEY WEST NAS   CLOUDY    86  78  77 W12       29.91S HX  98
KEY WEST INTL  CLOUDY    85  77  77 W9        29.91S HX  95

STATION/POSITION SKY/WX   TEMP    WIND        PRES    WAVE   SWELL
                          AIR SEA DIR/SP/G            HT/PER HT/PER
                          (F)     (DEG/KT/KT) (MB)    (FT/S) (FT/S)
NAPLES                        84  310/ 10/ 12 1012.2R
DRY TORTUGAS               81     270/  9/ 10 1012.4F
SAND KEY                   82     270/  8/  9 1013.5R
LONG KEY                   83 84  250/ 10/ 11 1012.8F
MOLASSES REEF              82 81  240/ 12/ 12 1012.8F

$$
FLZ067-068-071>074-168-172>174-252100-
SOUTHEAST FLORIDA

CITY           SKY/WX    TMP DP  RH WIND       PRES   REMARKS
W PALM BEACH   PTSUNNY   81  75  82 W13       29.88S
BOCA RATON     MOSUNNY   82  77  83 W12       29.88F
FT LAUDER-EXEC CLOUDY    84  74  71 NW9       29.88F
FT LAUDERDALE  CLOUDY    82  78  88 W5        29.88F
POMPANO BEACH  CLOUDY    82  76  81 W10       29.89F
PEMBROKE PINES PTSUNNY   85  75  72 W9        29.89F
OPA LOCKA      CLOUDY    86  78  77 W14       29.88F HX  98
MIAMI          CLOUDY    89  73  59 SW17G25   29.88F HX  97
WEST KENDALL   CLOUDY    89  71  55 SW17G26   29.88S HX  95
HOMESTEAD      CLOUDY    87  78  74 W17G26    29.89S HX  99

STATION/POSITION SKY/WX   TEMP    WIND        PRES    WAVE   SWELL
                          AIR SEA DIR/SP/G            HT/PER HT/PER
                          (F)     (DEG/KT/KT) (MB)    (FT/S) (FT/S)
PORT EVERGLADES            82     300/  8/ 10 1011.9F
VIRGINIA KEY               85 84  220/ 16/ 19 1011.4F
LAKE WORTH                 81 81              1012.7F
FOWEY ROCKS                85 83  210/ 23/ 25 1012.4F
SETTLEMENT POINT           80     220/ 15/ 18 1012.3R

$$





USA.gov is the U.S. government's official web portal to all federal, state and local government web resources and services.